Location: Buckeye Ditch
(40.9104°N, 122.9517°W)
Time: 17:29:50
(UTC+00:00)

Cosmos 921 Rocket - Visible Passes

Search period start: 12 July 2024 00:00
Search period end: 22 July 2024 00:00
Orbit: 568 x 625 km, 75.8° (Epoch: 11 July)

Date Brightness Start Highest point End Pass type
(mag) Time Alt. Az. Time Alt. Az. Time Alt. Az.
12 Jul 4.0 05:15:13 10° N 05:18:54 30° ENE 05:20:37 22° ESE visible
12 Jul 4.8 06:53:45 10° NW 06:56:52 21° W 06:57:18 20° WSW visible
13 Jul 3.2 05:25:11 10° N 05:29:16 51° ENE 05:30:53 32° SE visible
13 Jul 5.4 07:05:17 10° WNW 07:06:56 12° W 07:07:34 12° WSW visible
14 Jul 2.8 05:35:22 10° NNW 05:39:33 89° WSW 05:41:11 36° SSE visible
15 Jul 5.0 04:09:05 10° NNE 04:11:18 14° ENE 04:13:30 10° E visible
15 Jul 3.5 05:45:43 10° NNW 05:49:45 50° WSW 05:51:32 29° SSW visible
16 Jul 4.4 04:18:26 10° NNE 04:21:45 22° ENE 04:25:05 10° ESE visible
16 Jul 4.5 05:56:18 10° NW 05:59:54 29° W 06:01:54 19° SW visible
17 Jul 3.7 04:28:15 10° N 04:32:09 36° ENE 04:35:37 12° SE visible
17 Jul 5.3 06:07:16 10° NW 06:09:59 17° W 06:12:19 12° SW visible
18 Jul 3.0 04:38:18 10° N 04:42:28 64° ENE 04:46:05 14° SSE visible
19 Jul 3.1 04:48:31 10° NNW 04:52:43 72° WSW 04:56:34 12° S visible
20 Jul 4.1 04:58:57 10° NNW 05:02:52 40° W 05:06:51 10° S visible
21 Jul 5.0 05:09:38 10° NW 05:13:00 24° W 05:16:24 10° SSW visible
